GFSFLT2_850_spd_000.txt.gz
Wind_Speed
41 43 45 48 49 51 48 49 49 46 40 41 43 48 47 49 48 49 50 46 45 43 38 36 33 30 22
49 42 42 45 49 52 52 54 53 49 47 44 44 48 50 54 52 50 50 50 47 40 38 31 31 24 22
48 45 42 42 43 46 49 53 47 48 49 49 48 48 53 52 59 52 53 53 48 40 35 29 30 24 23
41 42 41 39 36 40 43 45 48 52 49 51 49 50 54 49 51 56 50 49 46 36 32 29 29 25 22
41 41 41 35 37 39 44 42 38 42 42 41 48 52 46 50 46 47 47 47 39 33 27 24 23 23 22
41 39 42 41 40 39 39 39 33 44 40 50 55 50 47 50 50 48 47 39 33 26 26 23 23 22 21
40 41 40 40 37 40 37 40 43 43 32 40 43 43 44 46 48 40 32 30 27 25 26 25 24 23 21
39 43 42 42 37 43 46 41 45 50 39 36 35 39 40 41 45 35 31 30 27 23 26 24 23 22 21
42 43 42 40 38 38 40 36 36 39 34 37 36 35 33 34 35 33 31 25 22 24 24 23 22 21 21
48 43 38 35 34 38 34 31 33 33 35 38 28 28 16 27 32 30 24 20 24 23 22 22 23 23 24
40 36 33 32 29 29 28 24 28 40 31 29 30 29 16 18 29 25 22 27 28 25 22 23 22 21 23
38 34 32 28 26 25 24 24 24 30 22 24 29 36 22 17 17 23 27 25 24 22 20 21 22 22 22
36 34 30 29 26 22 21 17 17 15 17 27 20 30 18 14 19 27 26 23 20 20 19 19 20 22 22
34 31 28 27 22 18 14 9 12 19 23 14 22 17 15 14 13 19 20 12 20 18 17 19 19 20 20
35 31 27 25 21 15 11 12 16 19 16 14 15 13 13 12 12 13 14 15 14 17 18 17 17 17 19
31 27 24 23 19 12 11 9 10 13 13 13 11 11 11 8 9 11 12 12 14 15 14 15 15 16 18
29 25 21 18 13 11 10 8 10 13 11 10 11 8 8 5 3 7 8 10 10 11 13 16 19 13 13

GFSFLT2_850_spd_003.txt.gz
Wind_Speed
44 43 42 40 42 43 44 44 46 49 51 49 47 47 47 46 46 45 48 51 48 46 51 54 49 44 38
50 47 39 40 42 43 41 40 41 41 43 45 46 48 50 48 49 45 48 51 52 51 53 57 50 45 38
41 44 48 43 42 43 43 41 39 37 38 38 44 46 44 49 48 47 48 53 54 53 54 48 39 36 32
36 41 42 44 39 39 40 35 38 38 35 40 39 41 37 38 49 50 50 50 58 50 56 56 49 39 29
37 37 42 43 38 40 41 40 42 38 41 36 41 38 45 33 31 40 50 48 46 55 51 51 40 36 28
38 40 45 42 41 39 41 43 43 34 28 31 35 42 42 44 40 40 45 49 50 52 49 42 34 30 28
37 40 45 44 44 44 39 38 41 44 42 43 44 48 44 43 40 38 47 53 49 42 35 32 31 27 23
36 39 44 48 43 46 49 47 47 46 42 42 41 44 44 38 34 38 49 45 36 28 28 31 27 21 22
41 43 43 45 36 36 39 37 38 38 41 39 37 36 36 31 30 35 37 32 28 27 30 27 23 25 26
47 43 40 36 29 30 34 38 39 31 33 34 36 32 18 24 35 31 33 28 25 25 24 23 23 26 28
41 41 40 37 35 30 30 29 30 34 33 31 32 33 23 14 36 32 27 25 23 22 20 21 23 26 27
40 42 41 40 36 33 29 25 25 29 29 31 31 33 32 18 22 30 26 26 25 24 25 25 23 24 25
39 41 41 39 34 29 26 24 22 22 18 25 28 25 26 23 29 35 30 26 25 25 26 27 28 29 25
41 42 41 33 30 25 23 18 14 5 3 12 12 19 16 18 25 30 23 16 26 24 24 24 26 25 25
41 41 38 32 27 22 17 13 9 5 7 13 18 18 14 14 17 23 23 15 21 22 22 21 20 19 19
39 40 36 30 22 17 12 10 7 6 8 15 14 14 15 13 15 21 19 14 14 20 18 16 15 15 16
39 38 31 24 16 12 6 5 6 7 10 8 9 11 12 10 12 14 12 14 15 15 15 14 14 15 17

GFSFLT2_850_spd_006.txt.gz
Wind_Speed
43 49 48 45 42 41 44 45 44 41 41 40 41 40 37 37 38 45 53 57 55 50 53 49 49 50 49
51 49 46 45 44 43 41 39 44 40 41 40 37 34 33 32 34 36 39 41 47 47 49 53 50 49 52
43 46 49 48 40 41 43 43 38 36 40 35 37 34 32 34 34 34 38 36 38 42 43 52 57 51 52
35 39 41 42 37 39 45 42 44 38 37 35 35 29 35 35 34 35 30 32 38 43 52 46 56 57 59
40 38 38 38 39 41 41 43 44 40 41 37 31 32 29 33 32 30 31 33 32 37 45 45 42 64 58
41 43 44 44 42 40 34 42 44 36 31 39 37 38 43 44 40 39 34 35 36 36 30 41 50 60 59
44 45 42 40 38 44 38 41 50 50 44 50 40 41 37 39 37 34 35 35 29 32 33 41 56 58 59
41 44 41 34 40 43 47 48 43 39 36 41 35 36 33 41 37 33 35 30 24 36 43 52 52 52 46
37 38 37 44 37 35 38 38 38 39 39 39 41 41 40 38 34 31 25 24 34 42 46 42 38 34 33
46 42 39 34 32 32 33 34 33 31 17 17 23 24 17 17 15 17 23 31 33 34 34 30 30 31 29
38 38 37 37 36 36 34 33 35 33 31 23 25 28 25 17 19 25 29 31 32 31 28 27 29 31 31
37 39 37 38 38 39 33 28 26 28 29 27 31 26 28 22 16 27 27 29 27 25 27 26 25 23 27
41 41 38 36 40 41 32 26 22 23 25 25 22 24 24 24 23 31 28 25 26 29 29 28 28 24 25
42 40 38 37 40 38 30 24 19 15 15 14 10 13 17 21 22 30 28 19 29 28 27 27 26 25 23
43 41 41 36 40 32 25 18 15 14 4 3 7 9 7 14 23 31 31 21 28 28 28 27 26 25 24
43 40 41 37 35 26 19 13 9 3 2 7 12 14 14 13 18 21 20 15 30 24 23 23 24 24 23
42 40 38 34 24 19 14 7 1 3 7 7 4 6 8 10 15 14 12 15 23 21 19 19 18 17 17

GFSFLT2_850_spd_009.txt.gz
Wind_Speed
39 41 45 48 43 40 44 44 42 40 41 40 40 41 39 39 38 36 35 37 39 35 46 42 47 51 50
41 45 43 40 40 45 44 36 40 40 39 34 37 37 40 37 30 29 28 31 31 34 34 51 60 47 58
41 42 41 39 42 42 41 44 40 39 34 32 29 36 38 39 34 30 32 32 31 30 34 36 43 49 62
36 40 40 42 42 43 44 41 40 38 35 33 44 37 29 32 36 33 34 30 29 29 27 35 36 40 47
40 39 39 43 43 44 42 40 40 39 36 37 36 35 35 35 29 27 28 30 31 31 27 31 37 41 45
42 39 43 43 45 44 44 41 32 40 33 43 44 38 39 37 35 37 36 34 32 31 33 32 35 33 39
42 38 43 45 43 45 32 40 40 41 38 42 37 38 37 32 28 28 29 31 29 29 30 33 34 34 36
40 41 41 44 41 41 41 42 42 39 31 35 39 39 36 30 32 36 37 31 26 27 28 31 33 34 34
38 37 38 38 33 34 37 34 40 36 29 33 24 22 25 25 25 26 26 25 26 24 26 27 26 26 30
46 43 32 32 29 27 31 34 37 38 23 23 32 24 12 14 10 18 17 12 6 16 18 22 34 38 46
36 35 34 36 35 27 29 31 38 39 31 26 24 25 22 24 21 12 13 12 21 24 30 38 37 37 42
34 36 38 41 35 32 28 31 35 31 30 26 28 26 23 23 19 13 16 27 30 32 29 26 20 19 20
37 38 40 40 36 33 30 34 28 26 19 21 24 24 20 21 20 16 18 21 24 27 25 21 23 24 33
37 40 41 38 36 33 31 30 25 19 14 17 16 14 14 16 19 17 21 16 23 24 29 27 26 28 33
39 42 41 39 37 32 31 22 17 14 10 6 5 6 2 8 12 17 22 23 26 29 30 29 28 24 24
40 40 39 38 36 30 20 14 10 6 5 3 5 10 16 16 16 21 25 29 29 27 26 27 27 26 24
41 39 36 35 30 23 16 9 6 5 7 10 6 8 12 12 15 16 22 26 26 25 22 19 22 22 22

GFSFLT2_850_spd_012.txt.gz
Wind_Speed
39 46 43 43 42 41 39 39 42 42 40 35 40 38 36 38 42 42 44 41 41 37 39 39 38 38 43
44 44 44 43 42 43 42 41 43 42 39 39 38 37 35 37 39 45 45 43 41 34 35 35 36 39 35
43 41 42 42 43 43 41 44 41 38 37 36 32 34 36 36 40 44 41 44 40 36 30 30 34 37 39
39 40 40 45 42 41 43 39 42 42 42 32 37 32 35 35 36 35 35 30 36 39 31 27 31 34 39
40 38 42 45 42 41 41 45 48 47 37 35 33 35 39 42 41 38 41 36 30 31 36 35 30 32 35
38 39 46 42 43 45 41 42 44 45 33 41 46 40 43 43 39 33 34 34 32 34 36 36 41 39 35
40 43 47 44 43 46 43 43 46 48 42 47 39 39 40 39 36 36 29 28 29 32 34 36 39 40 40
42 42 42 45 43 44 46 48 45 43 31 38 37 42 40 34 28 26 30 29 35 36 35 34 37 41 39
39 40 41 38 32 35 40 37 39 36 29 35 36 35 33 42 25 18 23 27 30 30 30 32 32 33 34
44 39 31 31 29 28 35 37 37 39 28 31 36 31 23 18 18 21 24 21 15 18 24 26 29 26 24
39 37 35 35 33 34 35 34 37 40 34 30 32 29 26 29 30 28 21 7 5 8 11 9 13 21 23
38 39 38 39 37 37 33 31 30 34 33 28 29 26 24 27 28 21 17 1 17 16 20 23 26 32 39
38 40 40 38 38 37 34 30 29 28 26 20 21 23 24 24 23 16 15 6 21 19 22 27 33 38 40
38 41 39 39 39 36 35 31 29 24 19 16 15 13 17 16 15 15 12 5 19 24 22 19 19 20 26
40 39 39 40 37 31 30 29 22 18 13 10 5 5 6 7 8 10 10 12 21 21 21 26 25 27 29
39 38 38 36 35 32 25 18 13 11 10 9 6 2 3 8 7 9 15 22 26 27 27 31 30 26 27
38 36 32 31 30 25 19 14 11 13 15 13 9 8 9 8 14 16 23 25 28 30 29 29 29 23 21

GFSFLT2_850_spd_015.txt.gz
Wind_Speed
46 44 45 45 43 41 39 37 40 42 42 42 42 42 44 45 43 41 39 39 36 33 34 35 35 36 38
45 45 45 45 43 41 39 41 42 41 41 45 40 40 41 43 41 39 39 38 38 38 37 38 39 35 32
45 44 43 41 45 40 41 43 44 43 38 39 41 41 42 38 39 39 39 38 37 35 33 34 37 37 32
41 43 40 42 37 41 48 47 49 44 42 42 41 40 38 36 35 36 38 38 40 36 35 32 31 36 36
42 42 37 40 42 46 47 48 50 41 42 45 40 40 42 42 39 37 35 36 39 32 31 33 30 33 34
42 32 40 44 48 45 46 45 51 41 39 49 42 42 41 41 35 33 36 35 35 37 36 37 36 33 38
42 38 45 46 48 48 43 46 48 51 43 49 40 42 34 38 39 36 36 35 32 32 33 37 41 35 37
41 43 44 47 44 45 47 48 46 44 37 40 40 37 45 40 42 36 34 33 30 28 30 31 35 41 38
39 41 40 38 37 39 42 40 42 37 37 37 38 39 44 42 36 27 22 28 27 28 30 31 36 37 41
44 41 37 36 33 32 37 40 40 41 35 37 41 37 35 34 18 28 37 29 28 27 27 29 33 37 40
40 40 38 36 38 38 38 38 41 42 41 35 38 38 34 36 33 38 31 27 27 5 7 16 21 28 32
39 38 38 40 42 39 37 36 36 39 36 32 38 36 33 30 33 33 28 22 10 15 11 12 14 20 21
38 39 42 41 39 40 40 36 33 31 28 25 26 26 25 25 28 28 19 20 5 16 14 21 26 28 28
38 41 39 39 40 38 38 36 34 31 21 16 16 13 15 20 19 16 13 10 5 16 19 24 31 34 40
40 38 39 39 37 33 36 31 23 19 19 16 12 8 6 12 8 4 7 2 13 13 16 22 23 25 33
38 39 38 36 35 34 30 24 19 21 23 23 15 6 6 5 5 3 3 13 17 21 25 29 31 29 28
39 37 34 32 32 31 25 22 21 22 20 21 17 12 11 10 13 11 15 20 23 27 30 32 35 33 34

GFSFLT2_850_spd_018.txt.gz
Wind_Speed
50 47 46 48 54 44 38 38 40 36 38 38 42 44 44 44 43 42 43 42 42 39 38 38 38 36 35
48 44 46 50 46 47 41 38 33 39 40 44 48 44 41 43 45 46 45 42 38 39 37 35 37 34 35
47 47 45 45 50 45 38 37 40 41 46 41 39 38 41 41 40 41 43 42 36 34 34 35 36 35 33
44 42 44 48 37 39 44 44 48 41 46 40 37 40 37 36 37 39 40 36 36 35 35 34 35 32 34
40 44 41 43 38 43 44 52 49 45 38 45 41 41 44 40 35 35 33 32 32 33 33 34 34 34 32
45 47 48 47 45 41 46 48 49 37 42 49 42 45 43 39 34 37 32 34 37 36 36 36 36 36 37
45 45 45 43 48 48 45 40 44 48 45 46 42 41 37 48 38 36 37 37 36 35 35 36 36 36 35
39 40 43 45 43 42 44 49 47 42 35 41 39 46 45 42 38 38 34 32 34 30 31 33 32 33 36
36 37 39 38 35 39 41 40 44 39 38 40 39 46 44 44 37 27 26 27 34 36 32 33 36 36 38
44 46 39 41 34 34 39 41 42 43 36 38 41 40 39 32 17 36 31 39 31 27 27 33 38 39 39
41 43 42 41 40 39 37 38 42 42 40 35 39 40 32 33 33 30 38 36 24 24 19 27 37 43 44
41 39 40 42 39 37 35 34 35 37 35 31 36 37 36 31 29 39 30 21 23 20 7 7 12 28 38
39 42 41 39 38 37 34 32 32 29 24 22 19 18 22 21 28 31 25 23 19 12 11 15 18 23 22
39 41 40 39 38 34 37 35 35 28 28 27 20 17 13 17 22 19 16 17 14 13 13 14 19 19 19
40 40 39 37 34 33 34 33 30 29 33 34 20 11 9 13 17 15 14 10 10 16 24 27 34 34 33
38 37 35 33 33 32 32 32 28 28 29 31 22 13 6 2 12 12 9 13 16 23 29 35 37 38 38
37 34 34 33 32 33 32 33 29 28 25 24 22 18 16 15 18 10 13 19 22 31 36 38 40 38 35

GFSFLT2_850_spd_021.txt.gz
Wind_Speed
48 48 49 52 53 50 43 38 39 38 35 34 39 42 44 49 48 46 44 45 44 43 44 43 41 42 41
50 49 49 49 48 48 43 40 39 40 39 41 45 48 47 42 43 42 41 42 42 42 42 42 42 42 40
45 50 45 43 43 39 49 44 42 40 41 42 42 40 38 37 40 42 41 41 40 41 41 41 40 35 36
43 40 43 37 41 47 52 42 41 42 43 42 36 33 40 39 38 38 38 38 37 37 40 38 36 34 35
40 35 45 47 45 44 45 43 50 41 39 37 37 44 47 40 37 35 33 33 34 37 37 38 35 33 34
40 40 47 43 44 44 43 42 44 39 36 49 41 45 43 42 37 34 36 42 38 37 37 34 35 35 37
42 43 42 46 47 42 44 43 44 46 43 46 41 41 43 44 35 37 39 39 39 39 38 39 38 37 39
36 40 42 41 44 43 43 48 45 41 37 44 42 44 45 43 37 36 36 35 35 34 35 35 37 36 36
34 35 40 37 35 38 41 40 41 40 43 40 43 45 44 43 35 25 26 30 32 33 33 34 34 35 37
44 42 37 36 32 33 36 38 39 41 40 36 40 41 30 34 23 37 36 36 33 34 35 35 34 35 38
38 40 38 38 37 33 31 34 39 41 36 35 37 38 30 35 37 39 37 38 33 27 25 26 31 37 42
39 38 39 40 35 32 30 29 30 34 26 24 27 29 31 31 35 37 34 28 22 26 19 14 24 37 43
38 39 38 35 35 33 30 29 30 27 27 27 29 30 25 25 28 34 36 34 24 20 12 9 4 14 26
37 37 36 37 35 32 32 32 33 35 30 30 26 20 20 13 19 29 26 21 23 16 22 15 9 9 13
36 37 37 36 35 31 31 31 31 34 32 30 23 15 10 8 21 23 20 16 16 21 32 35 30 17 14
36 36 36 35 35 34 30 31 30 28 27 25 26 19 13 10 20 22 15 22 23 27 32 37 40 38 30
37 35 34 35 34 33 30 28 28 26 23 21 21 22 18 17 24 18 19 27 31 36 39 41 39 39 38

GFSFLT2_850_spd_024.txt.gz
Wind_Speed
46 45 46 50 46 40 37 34 33 36 46 47 46 47 46 46 46 48 49 49 47 45 45 44 44 44 43
48 49 46 47 44 44 35 42 36 41 38 38 37 40 44 45 46 45 44 43 44 43 42 42 43 44 44
47 49 48 43 41 42 44 47 41 38 36 36 39 38 38 40 40 39 40 42 43 42 43 44 44 43 43
43 41 44 35 41 43 49 43 47 42 36 39 36 39 38 38 41 42 43 42 41 41 41 41 43 43 43
45 43 36 40 41 43 45 49 41 35 45 43 39 41 45 43 42 41 39 38 38 38 38 39 39 39 40
34 40 43 40 43 45 44 33 50 41 36 46 42 47 46 45 40 38 38 39 40 40 40 41 42 41 40
39 41 41 45 40 41 44 43 44 50 44 47 44 44 46 45 39 39 39 39 39 40 42 42 42 41 41
36 39 39 41 43 42 42 44 43 45 37 41 46 46 44 43 41 38 37 36 36 37 38 39 39 40 41
33 35 39 35 32 34 39 39 40 42 39 38 44 46 45 45 38 29 24 31 34 37 39 39 38 35 36
43 39 31 34 30 30 34 37 39 42 39 36 43 42 31 38 31 40 39 37 34 36 37 37 38 37 41
33 37 37 36 34 33 31 32 37 40 36 33 36 41 33 39 40 44 36 37 39 33 27 29 33 38 43
36 38 38 38 36 33 31 28 28 32 32 29 37 39 39 40 42 42 36 38 34 30 33 27 21 26 39
37 37 37 36 36 35 32 30 30 29 28 28 27 30 30 33 38 37 41 39 23 32 25 16 10 22 34
34 36 36 36 36 34 35 33 34 33 29 26 24 26 26 22 23 33 34 28 29 25 24 24 15 2 16
34 36 35 36 36 33 33 32 32 34 35 29 25 20 15 15 24 31 27 25 25 26 28 30 26 15 5
33 34 36 36 35 34 31 31 30 32 30 28 27 24 20 22 25 33 24 26 31 30 35 36 38 23 9
33 35 35 34 34 33 32 29 29 30 26 25 22 23 24 19 30 33 28 28 32 36 36 37 37 47 24

GFSFLT2_850_spd_027.txt.gz
Wind_Speed
47 48 49 49 45 43 40 38 38 31 41 47 46 42 41 41 42 42 42 45 47 46 47 48 47 47 47
48 55 49 49 49 45 39 27 42 39 41 39 39 39 40 38 40 42 42 44 45 46 47 47 47 47 46
47 51 49 45 44 42 43 43 40 38 38 37 35 35 38 43 41 42 42 42 42 42 41 41 42 43 44
45 44 42 37 40 43 48 41 43 43 38 33 42 43 40 39 40 40 41 42 42 43 43 44 45 45 46
44 36 41 41 42 44 45 46 42 40 44 43 39 40 44 43 40 38 38 37 38 39 40 41 42 42 43
46 42 46 44 46 45 41 45 48 41 33 51 46 46 46 43 40 37 38 39 40 40 41 41 42 43 43
42 41 42 45 42 46 47 42 45 49 40 46 44 46 45 43 40 38 38 39 39 40 41 41 42 42 44
34 38 39 42 43 41 43 45 46 45 34 40 45 47 46 45 43 39 35 34 34 36 37 39 40 40 42
31 37 38 32 30 34 39 40 43 43 43 38 42 43 49 47 35 34 33 33 35 36 38 40 40 41 42
42 34 31 31 31 30 34 38 40 45 38 37 43 39 34 37 34 43 40 39 34 35 36 39 41 42 46
33 35 35 36 34 33 32 32 38 41 40 34 39 39 32 42 43 45 37 39 39 34 28 29 31 37 44
36 37 37 37 36 34 32 32 31 34 33 28 33 35 39 42 43 44 42 39 32 31 32 33 31 29 34
36 35 36 37 37 36 33 33 33 31 29 27 28 30 31 36 40 40 42 38 29 34 33 29 27 21 24
33 34 35 37 36 35 37 36 37 35 31 30 26 25 28 26 28 34 33 30 37 32 28 29 21 2 21
32 34 36 37 37 34 35 35 34 36 37 34 26 23 17 18 27 34 34 34 31 34 30 32 27 12 8
31 33 36 37 36 35 33 34 33 34 33 31 30 29 28 23 29 38 37 36 31 34 37 29 35 13 7
31 33 34 34 34 35 34 33 33 33 29 27 28 28 30 25 29 33 43 38 32 34 37 38 34 31 9

GFSFLT2_850_spd_030.txt.gz
Wind_Speed
48 49 51 46 46 43 40 39 35 35 40 41 45 48 46 44 44 44 43 43 41 42 41 42 44 44 45
51 51 49 48 49 43 39 41 42 41 39 38 39 41 43 42 40 40 41 42 43 43 41 42 44 45 44
47 46 49 45 42 45 43 43 39 38 37 38 39 39 39 39 42 44 44 43 43 43 43 43 42 42 42
40 42 34 43 40 46 42 45 43 39 41 43 37 38 38 38 39 39 40 40 40 40 41 41 43 44 45
35 43 40 43 43 47 44 46 43 42 40 43 40 45 47 42 40 38 37 36 36 37 38 39 40 41 42
42 40 43 42 47 46 42 47 46 39 35 51 45 48 46 45 40 36 37 38 39 39 40 40 42 42 42
39 38 42 43 42 47 47 43 45 48 42 51 45 49 46 45 42 39 39 39 38 39 40 41 42 43 44
32 37 37 41 39 39 42 44 46 45 35 42 47 48 47 47 44 34 32 34 35 36 37 38 39 40 42
30 34 37 32 29 32 37 38 43 45 44 38 42 46 50 46 33 30 32 33 34 34 35 38 40 41 43
41 35 29 29 30 30 33 36 39 42 41 37 43 40 35 32 36 44 39 35 36 34 36 38 40 43 47
33 33 32 33 34 34 31 31 35 39 37 33 38 39 30 42 50 43 39 40 39 32 27 30 30 30 41
33 35 35 35 36 34 31 30 30 33 31 26 32 34 38 45 46 44 41 35 32 32 34 30 29 27 31
34 34 33 36 36 35 32 32 32 30 28 27 28 30 33 38 41 43 43 44 27 37 36 36 33 31 35
33 33 33 35 35 34 36 36 37 37 31 29 28 29 30 25 28 36 41 33 44 38 35 31 26 26 12
32 32 33 35 35 34 34 35 34 37 39 33 30 29 24 18 27 36 41 41 42 34 37 38 30 19 6
30 31 33 35 37 34 33 33 33 34 37 33 33 35 31 26 25 34 39 44 46 35 35 35 32 12 6
30 31 34 34 34 33 33 31 33 33 33 28 30 31 32 30 25 27 38 42 46 42 35 36 32 18 10

GFSFLT2_850_spd_033.txt.gz
Wind_Speed
39 40 35 33 33 31 32 32 37 42 37 37 39 38 38 40 41 42 43 43 44 43 42 42 42 41 41
45 42 38 35 33 33 38 42 35 35 36 37 37 38 39 38 40 41 41 42 42 42 43 43 43 42 44
45 46 41 33 37 41 35 37 33 35 38 36 35 36 37 39 39 40 41 41 41 42 42 42 42 43 42
39 35 38 46 39 39 39 39 38 38 44 37 36 37 37 38 39 39 39 38 38 39 40 40 40 41 43
30 39 40 40 37 39 40 43 43 37 43 39 37 47 45 39 37 36 35 35 36 37 38 38 38 39 40
39 38 38 34 40 41 40 43 44 34 32 52 42 47 44 42 38 36 37 38 38 39 40 40 41 41 42
36 33 37 39 39 44 45 41 42 45 39 49 44 46 44 44 42 37 35 35 36 38 39 40 41 42 43
29 34 35 36 39 36 37 40 43 44 31 41 44 43 46 48 34 23 29 31 31 33 35 36 38 40 42
30 29 35 31 26 27 33 34 41 43 41 30 33 44 48 44 31 40 38 33 31 31 33 35 38 40 43
34 35 27 25 24 26 30 31 34 37 33 32 40 33 30 32 44 44 37 36 35 34 32 32 32 37 44
32 29 28 28 27 29 29 28 32 35 35 29 36 36 26 38 50 41 41 42 39 31 27 30 31 30 37
28 31 31 29 29 30 29 27 28 31 29 23 29 32 35 42 44 42 43 43 38 34 42 36 34 32 31
30 31 30 30 31 33 31 29 30 28 26 23 24 29 33 37 41 41 42 47 31 45 46 41 38 35 35
31 31 30 30 32 34 33 33 34 32 28 26 26 29 31 30 30 34 38 33 49 47 44 37 33 24 21
29 30 31 33 33 32 31 32 31 35 35 29 28 29 26 26 28 27 37 41 44 46 41 38 30 19 16
29 31 32 33 33 31 28 30 30 33 33 31 32 34 34 32 22 29 34 38 43 43 36 33 27 24 17
31 31 30 31 30 29 28 29 30 30 31 28 28 29 29 29 32 27 31 34 40 45 36 26 24 22 17

GFSFLT2_850_spd_036.txt.gz
Wind_Speed
31 29 31 29 30 29 30 34 39 37 34 36 36 36 37 38 39 40 40 41 41 42 43 43 43 43 44
38 35 32 32 31 30 35 38 33 34 34 36 36 37 37 36 37 38 40 41 42 42 42 43 42 43 43
42 39 37 34 32 41 29 32 31 32 35 35 35 37 36 36 37 39 40 41 42 41 42 42 42 43 44
37 42 33 36 38 35 34 33 36 35 41 35 34 35 36 37 39 39 38 38 38 39 40 41 41 42 43
36 30 41 37 34 34 36 39 42 35 39 38 37 43 42 38 37 35 34 35 37 38 38 39 41 41 41
35 37 36 35 34 38 41 37 44 33 30 50 40 43 42 41 36 36 36 36 36 37 38 40 41 42 43
34 32 34 34 40 40 41 42 40 43 38 47 39 42 41 41 37 33 29 33 35 36 37 38 39 41 42
29 31 34 35 34 38 37 39 40 40 30 39 42 38 42 45 30 23 31 29 29 31 35 37 39 40 40
28 30 30 33 28 29 31 32 39 41 40 28 29 41 44 40 29 34 36 32 32 35 34 35 37 38 41
29 27 25 23 23 21 26 30 34 36 29 29 37 30 28 29 42 40 38 33 36 38 33 31 30 31 36
26 23 22 22 22 22 24 27 32 36 36 30 35 34 26 38 45 41 41 42 41 40 37 38 36 33 37
23 25 26 28 28 27 28 30 30 33 32 26 32 32 34 40 43 43 43 40 41 40 44 46 43 37 33
26 27 28 29 30 32 32 31 30 29 26 26 26 27 30 36 43 44 39 43 37 41 46 45 40 32 31
25 29 30 31 32 31 32 32 32 32 26 27 24 24 30 33 35 38 36 35 44 44 44 41 30 24 25
28 31 31 30 31 30 29 30 31 33 35 30 25 24 28 28 30 29 35 39 39 42 42 41 29 24 23
30 31 31 30 31 30 28 29 30 32 33 33 30 30 31 28 12 27 34 36 39 39 37 38 32 24 21
31 29 29 30 30 30 29 29 30 31 32 29 26 27 29 30 36 27 34 35 35 36 33 37 32 24 15

GFSFLT2_850_spd_039.txt.gz
Wind_Speed
31 29 29 33 31 32 33 39 35 37 36 34 34 34 36 37 37 38 38 38 38 38 38 39 39 40 40
33 33 33 31 35 34 33 35 36 34 32 35 35 36 36 36 37 37 37 38 38 39 40 40 40 40 41
39 35 34 34 36 30 37 32 32 34 34 35 36 36 34 34 35 36 36 37 39 40 40 40 40 40 40
38 41 35 34 32 34 34 33 34 39 37 40 33 34 34 36 36 35 35 35 36 37 37 38 38 39 39
37 37 36 36 34 33 34 36 44 36 39 40 32 43 41 37 35 33 31 33 34 36 37 38 39 40 40
40 36 39 34 34 35 43 40 37 40 27 48 40 45 43 39 34 34 33 31 32 34 35 36 38 38 39
37 33 36 36 41 42 39 40 43 45 39 45 42 47 41 43 39 35 29 25 28 29 31 32 34 36 38
32 33 36 38 37 36 39 42 43 39 31 37 45 43 43 46 39 21 27 25 27 30 33 34 35 37 38
28 32 31 30 30 29 35 36 41 42 40 35 34 43 48 46 35 31 35 34 30 29 30 33 34 36 37
33 31 27 28 24 24 29 33 39 45 37 30 40 34 32 37 36 42 38 36 35 33 31 32 34 35 38
29 28 30 29 26 26 27 29 36 40 39 32 39 39 30 41 47 43 41 39 39 35 33 35 35 35 40
28 31 30 30 31 32 31 30 31 36 36 31 34 35 38 43 45 46 42 39 38 36 37 42 40 34 29
29 30 31 34 34 32 31 31 32 30 30 28 30 31 32 38 43 46 41 40 35 36 43 43 41 36 35
29 31 34 33 32 30 33 33 35 35 28 28 28 26 31 33 36 43 38 36 41 42 43 43 39 38 32
30 32 32 31 31 31 32 34 33 35 36 32 30 29 29 31 34 35 32 39 39 41 41 41 40 39 33
30 30 31 32 33 32 32 32 34 35 35 35 35 36 34 31 24 24 35 37 40 40 38 37 40 40 30
31 30 31 32 31 32 33 32 34 35 35 36 32 32 33 35 44 29 32 34 38 41 37 36 37 39 30

GFSFLT2_850_spd_042.txt.gz
Wind_Speed
37 35 31 32 39 32 37 36 37 37 33 33 32 33 36 35 36 37 38 37 36 36 35 35 35 35 35
34 33 32 35 39 35 35 35 40 34 29 34 34 35 36 35 35 35 35 36 36 35 35 35 35 36 36
38 37 40 36 36 37 38 38 32 35 35 36 36 34 33 34 32 34 35 36 34 34 34 35 35 36 36
37 41 35 34 35 36 39 34 40 44 41 36 33 36 34 33 34 32 31 31 31 31 32 32 33 34 35
35 35 35 35 36 33 37 45 45 42 34 45 42 40 36 36 35 33 30 30 32 32 32 32 32 32 34
39 37 39 36 34 38 44 44 44 36 36 49 40 40 40 39 36 34 33 31 33 33 31 31 32 32 32
36 35 38 39 37 43 40 41 39 47 42 46 40 44 42 42 39 37 32 26 26 27 27 28 31 33 35
33 35 35 37 36 36 35 39 44 44 37 36 44 46 46 45 40 28 24 25 25 27 30 31 31 32 33
30 29 29 30 27 30 33 38 42 42 40 38 40 47 49 45 36 33 36 32 29 27 27 29 29 31 33
34 33 27 28 28 26 27 32 38 44 36 34 43 39 33 37 36 42 40 34 30 30 25 25 25 27 32
32 29 29 27 27 29 30 30 35 38 36 32 39 40 32 43 46 44 42 37 36 30 25 24 28 28 33
29 30 31 31 32 32 30 27 29 34 35 30 35 35 37 43 46 46 42 38 36 31 30 32 31 33 31
30 32 33 34 33 31 29 29 31 32 30 29 30 31 31 38 44 45 43 41 29 31 36 37 38 40 37
28 31 33 33 32 32 34 33 36 37 31 29 29 29 32 35 38 42 37 38 38 39 39 40 41 38 35
30 33 32 32 33 32 32 35 36 38 37 32 32 31 31 33 35 34 36 38 39 40 39 40 41 38 38
31 31 32 33 34 33 34 34 37 37 37 37 36 35 37 35 24 29 35 37 39 37 37 38 41 40 37
31 32 32 32 33 36 34 34 37 36 36 36 35 35 36 38 40 27 31 37 37 40 37 37 38 40 33

GFSFLT2_850_spd_045.txt.gz
Wind_Speed
35 37 37 37 36 34 32 31 33 32 31 31 29 29 32 32 33 33 34 33 34 33 34 34 34 34 34
36 35 36 35 37 32 31 33 34 34 30 28 32 31 33 32 31 32 32 32 33 34 36 35 35 34 33
37 35 37 39 38 37 39 38 37 37 34 33 32 32 29 30 31 29 31 33 32 32 32 32 32 32 32
33 36 38 39 35 40 42 41 42 42 38 35 31 33 35 32 29 29 29 29 29 29 30 32 33 33 32
33 37 34 35 39 38 41 45 46 41 40 32 39 42 38 31 30 29 29 29 31 33 32 32 32 31 30
33 34 38 38 39 38 41 44 45 38 31 44 43 42 36 36 34 33 33 31 30 32 32 29 29 29 28
36 36 35 37 37 38 37 37 38 44 46 43 40 43 41 38 38 34 28 26 27 27 25 25 27 28 29
31 33 33 31 32 34 35 37 41 40 38 39 43 41 41 41 35 27 21 24 24 25 30 29 28 28 29
28 26 26 28 25 26 31 33 39 41 38 36 37 43 44 40 32 27 33 31 31 27 24 26 28 28 30
30 31 27 24 22 24 28 31 35 39 35 34 40 38 30 34 34 37 38 34 30 27 24 23 22 25 27
30 28 26 25 26 27 27 28 32 35 35 33 38 38 30 41 45 43 40 37 35 30 25 22 18 22 27
27 28 28 30 30 29 27 28 28 31 31 29 32 33 35 40 45 45 41 37 35 32 23 22 26 27 28
27 27 29 31 31 30 28 29 29 29 29 29 28 29 30 36 41 42 42 40 28 27 33 30 31 31 33
26 29 30 30 31 29 31 32 35 33 29 29 27 28 32 34 36 42 38 37 36 35 33 36 35 33 34
28 29 31 31 29 29 33 35 34 35 35 30 28 29 30 33 36 35 35 36 37 37 37 40 37 35 35
27 29 31 32 34 34 32 32 34 34 35 33 34 35 37 37 27 31 36 39 38 36 34 36 41 37 36
28 31 32 35 34 34 33 33 34 34 34 36 36 35 38 38 38 27 30 35 32 35 34 35 38 41 36

GFSFLT2_850_spd_048.txt.gz
Wind_Speed
33 32 32 33 33 33 33 30 29 29 28 27 28 27 28 30 30 31 32 32 32 32 33 33 33 33 34
33 32 33 33 35 36 31 31 33 30 29 27 28 28 28 29 29 29 30 32 32 32 33 33 34 34 34
33 33 33 34 37 36 38 38 35 34 31 30 29 29 26 27 28 32 31 31 30 32 32 32 32 32 32
31 32 34 35 38 40 41 38 38 34 35 31 25 27 32 32 30 29 28 29 30 30 30 31 32 33 33
29 33 35 38 40 39 39 38 38 37 37 23 36 42 35 34 32 31 28 28 29 32 33 33 32 32 34
30 34 38 37 36 35 34 37 41 36 34 43 39 41 39 35 32 31 30 31 31 32 31 31 31 29 29
31 34 35 33 30 32 33 36 39 40 41 46 39 41 35 34 35 32 29 27 27 27 27 28 26 28 29
30 30 27 28 29 32 36 36 37 36 36 42 39 37 38 39 36 25 19 20 23 24 26 29 32 32 31
24 24 25 26 27 28 29 31 39 40 34 32 37 42 44 41 33 28 32 29 29 29 28 29 29 30 32
27 27 25 24 22 22 27 31 33 37 30 35 38 36 29 37 34 39 38 35 33 29 28 27 27 29 32
26 25 25 23 23 25 26 28 31 35 34 31 37 35 32 42 42 41 41 38 35 32 27 25 23 24 29
25 26 26 26 27 27 26 27 27 33 34 29 33 33 35 40 45 44 41 40 38 34 26 19 25 25 26
24 25 27 27 28 28 25 25 30 32 29 28 29 30 30 36 43 44 44 43 33 28 31 30 31 27 28
25 26 26 29 29 29 32 33 34 32 28 27 28 28 32 34 37 44 41 39 36 33 33 34 30 30 32
24 26 29 31 32 31 30 32 33 35 36 30 27 30 32 33 36 38 37 36 35 37 36 38 37 35 34
23 28 32 32 33 32 31 30 32 34 35 34 36 36 34 35 28 31 36 39 40 39 37 36 41 37 35
25 29 31 31 32 33 31 32 33 34 35 37 36 35 35 36 40 28 31 38 35 34 33 34 39 41 36

GFSFLT2_850_spd_051.txt.gz
Wind_Speed
29 29 31 32 34 33 33 33 33 32 30 28 26 26 27 29 29 29 30 30 30 30 31 31 32 33 33
31 31 31 32 33 35 33 34 34 31 29 27 26 26 26 27 27 27 27 29 31 32 33 33 32 33 32
32 32 32 33 35 36 38 37 34 30 27 28 26 24 24 23 26 29 31 31 32 32 32 32 32 32 32
31 31 32 34 35 39 41 38 34 29 29 27 22 25 30 30 29 30 30 31 30 30 31 31 31 31 31
29 31 34 35 37 38 38 35 35 34 32 30 35 36 34 34 33 31 29 29 27 28 30 32 33 34 33
28 31 34 37 36 33 32 35 37 32 38 42 37 39 38 35 31 30 31 30 30 30 31 32 32 33 32
29 31 34 33 29 31 31 35 36 39 36 46 42 42 34 35 31 31 28 25 26 26 27 28 29 29 30
29 29 27 27 28 31 35 38 38 36 32 45 40 39 39 38 32 25 23 22 24 24 25 27 30 32 33
24 24 25 26 26 29 31 32 40 41 36 28 38 41 43 41 32 30 32 30 29 30 30 30 31 32 33
24 24 23 23 23 23 27 32 34 38 24 33 39 35 32 35 35 39 37 34 32 30 29 29 29 31 34
23 24 23 23 23 24 25 28 32 35 35 30 39 39 35 43 45 43 41 38 36 34 32 29 27 27 31
24 24 25 26 23 25 25 26 28 32 35 31 34 35 36 41 45 45 42 41 39 37 28 22 22 23 25
23 24 25 25 27 28 28 29 30 29 29 27 29 30 31 37 43 45 45 43 33 31 32 30 29 28 30
23 22 24 28 30 29 30 30 33 32 25 25 27 29 33 35 38 42 39 39 36 32 33 34 33 32 30
20 23 27 30 30 29 30 31 32 35 35 29 27 30 32 32 35 37 36 36 36 37 37 38 34 32 31
19 24 28 30 32 32 32 32 33 33 35 34 35 36 36 37 29 29 36 37 38 38 37 38 42 36 34
21 24 28 31 32 32 33 34 35 35 36 37 37 36 36 38 41 27 30 41 37 35 33 33 37 36 32

GFSFLT2_850_spd_054.txt.gz
Wind_Speed
27 26 28 29 29 30 31 33 33 33 31 30 26 25 25 25 26 26 27 27 28 29 29 29 29 30 31
27 28 29 29 31 32 32 32 33 29 26 24 24 24 24 24 24 25 25 26 28 29 30 31 32 32 32
28 28 30 31 32 33 33 34 30 27 24 25 23 22 20 22 23 26 29 30 31 31 30 31 31 31 32
27 29 30 30 32 34 36 34 31 26 25 24 24 25 25 26 27 28 29 30 30 29 29 31 32 32 32
27 28 30 31 32 33 34 32 33 31 30 30 31 31 28 29 29 28 28 28 28 27 29 31 32 33 34
25 28 29 31 32 30 29 33 35 34 37 39 34 37 35 30 29 29 28 27 28 29 30 31 32 33 33
25 27 29 28 25 28 30 33 36 36 36 44 40 40 32 32 30 30 27 22 23 26 26 27 28 29 30
24 25 23 22 25 29 32 35 35 34 32 43 39 38 38 37 34 26 22 23 25 24 24 26 28 30 32
19 19 21 21 22 26 28 29 36 37 36 26 38 42 45 41 34 32 34 32 31 30 30 29 29 31 33
17 16 17 19 19 21 25 28 31 37 29 31 39 37 34 37 40 41 38 34 32 31 30 31 30 31 35
18 19 19 19 20 20 23 27 30 34 37 32 37 37 35 43 46 44 41 39 37 35 31 28 26 26 29
19 19 19 19 19 23 24 25 27 30 31 28 32 32 34 40 45 46 43 40 39 35 27 24 23 23 24
19 20 19 21 23 24 24 25 29 27 25 24 26 27 29 35 42 44 44 40 31 29 32 30 27 26 28
20 19 20 23 25 26 28 29 32 31 26 22 24 27 32 34 36 42 39 39 35 31 32 32 31 29 28
17 18 22 26 28 27 28 31 33 35 35 29 27 28 30 31 32 33 32 35 35 36 36 37 32 30 28
16 19 23 27 30 30 30 31 32 34 36 36 34 34 35 35 28 34 38 38 37 34 34 37 38 33 30
16 18 23 28 29 30 30 32 35 37 38 38 37 35 36 37 41 28 31 36 33 34 31 31 33 31 27

GFSFLT2_850_spd_057.txt.gz
Wind_Speed
22 19 22 24 27 29 30 31 32 31 30 28 27 23 23 23 24 25 25 26 27 27 28 28 28 28 30
20 21 24 25 27 29 29 30 31 30 27 24 22 22 23 23 23 23 24 25 26 28 29 30 31 31 32
23 24 25 26 28 28 29 30 28 24 22 21 21 20 21 23 23 24 26 28 29 30 30 31 32 32 32
23 24 26 26 27 28 27 27 28 23 23 19 21 23 21 22 25 26 28 28 29 30 30 30 31 32 32
23 24 25 23 20 25 28 25 27 25 25 26 26 26 24 26 25 24 25 27 28 29 29 30 31 32 33
23 24 20 22 25 22 22 27 27 25 31 29 31 32 29 24 23 23 23 26 29 29 30 30 30 31 32
18 20 23 23 21 22 23 23 28 32 32 36 33 32 26 28 25 26 25 22 23 25 26 27 28 29 30
21 21 18 17 20 23 24 27 30 31 29 31 31 32 35 36 33 22 20 22 23 24 25 26 28 30 31
14 14 16 16 17 21 22 26 29 32 30 25 34 38 39 36 30 29 32 29 29 28 27 27 29 30 32
11 12 14 15 15 18 20 24 27 32 24 29 35 31 27 34 36 38 35 33 30 29 28 27 28 29 32
13 13 13 13 13 15 19 23 25 29 30 26 35 35 28 36 42 40 39 36 35 32 28 24 20 20 25
12 12 13 11 14 17 19 22 24 27 25 24 30 29 31 36 43 44 40 37 33 30 23 24 23 22 23
13 13 12 14 17 20 21 23 26 24 22 21 23 25 27 33 38 40 41 38 24 28 29 28 28 26 27
16 14 14 17 19 22 25 26 28 26 24 25 24 25 27 28 31 36 32 35 33 32 32 32 29 27 26
16 15 16 19 21 22 23 26 28 30 31 27 27 28 28 28 31 32 34 37 35 34 33 34 29 26 24
15 15 17 20 25 23 25 28 31 31 32 29 30 31 32 30 24 33 38 38 37 33 31 33 35 29 25
16 16 17 21 25 28 28 30 33 31 31 31 33 30 31 34 32 24 31 32 30 30 27 27 30 26 24

GFSFLT2_850_spd_060.txt.gz
Wind_Speed
24 24 26 26 21 24 28 29 30 33 32 31 30 28 26 24 24 24 24 25 25 26 27 26 27 28 28
21 21 20 18 23 27 27 28 30 30 29 26 24 24 24 24 24 23 24 25 25 27 28 28 30 30 31
17 17 18 21 23 22 21 25 24 25 23 20 21 20 22 23 24 25 26 27 28 29 30 30 31 31 32
17 16 15 15 18 18 17 18 20 21 22 19 21 21 20 22 23 26 28 29 29 29 29 30 30 31 31
12 11 13 13 15 15 17 17 20 22 17 16 18 22 23 24 25 25 24 25 27 29 28 29 30 31 32
11 13 14 14 14 15 16 18 20 17 16 23 22 24 25 25 26 26 25 26 29 30 29 30 30 31 31
14 14 15 14 17 19 15 18 23 21 22 26 22 23 23 26 27 26 22 20 21 24 27 27 28 29 30
14 14 14 13 13 16 18 19 20 20 18 25 22 23 26 27 28 20 19 21 21 22 25 27 29 30 31
13 12 13 13 14 17 17 15 20 23 22 20 22 23 33 31 23 25 27 26 25 25 26 27 29 30 31
8 9 10 11 13 14 16 19 21 23 13 24 28 22 21 31 26 32 29 31 29 30 29 28 27 29 32
9 10 10 11 11 12 16 19 22 26 25 22 31 30 23 31 39 37 35 34 34 33 29 23 19 21 25
10 10 11 11 12 14 17 20 23 26 22 23 27 26 27 33 37 37 35 36 35 29 24 29 27 25 25
11 12 14 13 14 16 18 21 24 22 20 19 23 24 26 32 36 36 35 32 26 30 30 30 28 28 29
13 14 14 14 15 18 22 22 26 26 26 25 24 23 26 29 31 36 32 29 32 29 30 31 30 28 26
16 16 16 16 17 19 21 23 26 29 30 23 22 24 27 28 32 32 33 35 33 33 32 34 31 26 23
17 18 18 18 19 22 22 23 26 28 27 26 27 28 28 27 25 31 34 35 34 32 29 29 32 25 23
18 19 19 20 20 22 23 26 27 27 27 28 29 27 29 30 30 25 31 32 31 30 27 26 29 26 22

GFSFLT2_850_spd_063.txt.gz
Wind_Speed
19 23 24 27 27 27 28 28 27 27 30 32 32 32 29 27 25 24 23 23 22 23 23 23 25 24 25
19 20 21 20 21 21 22 25 27 28 28 28 27 25 25 25 25 24 24 23 23 23 24 24 25 26 27
15 15 15 17 19 20 19 21 23 23 23 23 20 22 20 23 25 25 24 25 25 26 26 27 27 28 28
13 14 14 13 14 15 16 15 21 21 20 21 19 19 19 21 22 23 25 26 26 26 26 27 27 27 27
9 9 10 10 9 12 17 19 21 21 14 15 17 21 22 22 24 24 23 23 24 25 25 26 27 28 28
9 10 9 10 12 13 18 21 21 13 14 21 20 24 23 22 23 23 24 24 25 26 27 27 27 27 27
13 11 12 12 17 19 20 15 19 19 19 25 22 26 24 25 25 26 25 21 20 21 23 26 27 27 28
12 13 13 13 12 13 14 17 20 18 15 26 24 26 27 29 28 22 17 19 19 18 21 24 26 27 29
10 10 11 12 13 15 15 16 19 20 18 18 25 29 32 31 22 24 27 27 26 25 23 25 26 28 31
7 8 8 9 11 12 13 15 17 22 12 23 27 28 30 35 34 33 30 30 28 27 26 26 26 27 30
6 7 8 9 11 11 13 16 19 22 22 19 29 29 30 36 40 39 34 34 34 32 28 24 21 22 27
8 8 10 12 13 13 14 17 20 23 21 22 27 27 30 35 42 39 35 32 31 30 24 27 24 23 24
9 10 13 14 14 15 16 18 21 22 21 18 23 24 27 32 37 39 37 31 22 27 29 27 27 27 29
12 13 15 15 15 15 18 20 24 25 23 20 20 21 27 29 33 38 34 34 33 29 28 30 31 30 27
14 15 16 17 17 17 18 21 24 26 28 26 22 23 26 28 34 34 35 35 36 36 35 37 35 30 27
16 18 19 20 19 19 19 21 23 26 29 28 26 28 29 29 27 34 34 36 38 36 32 33 34 28 26
18 19 20 22 21 21 21 22 25 26 28 28 26 26 30 32 30 27 35 36 32 32 32 31 35 33 28

GFSFLT2_850_spd_066.txt.gz
Wind_Speed
15 16 16 17 19 20 21 22 22 22 24 25 25 26 27 26 24 22 21 20 20 19 19 20 20 20 21
17 14 14 13 13 17 19 19 22 22 21 22 22 21 20 20 21 21 21 21 20 20 20 21 22 22 23
9 7 9 12 13 15 16 16 16 16 17 19 18 18 18 18 18 19 20 21 21 22 22 23 23 24 24
7 7 9 9 9 10 10 12 16 18 17 17 15 13 14 15 18 19 20 21 21 21 22 23 23 23 24
6 6 5 7 8 9 13 17 18 18 13 10 12 14 14 15 18 19 18 18 19 21 23 24 25 26 26
6 6 7 7 11 13 15 18 21 9 14 12 13 14 14 15 17 18 19 20 22 22 23 24 24 25 25
9 8 9 12 14 16 17 16 13 13 15 15 15 16 16 18 19 20 17 16 17 19 22 22 23 24 24
10 10 12 13 13 12 11 12 12 12 12 22 17 19 21 21 19 12 14 17 17 19 20 21 22 24 25
8 7 8 9 9 10 10 12 16 14 11 16 22 26 26 22 14 20 22 23 23 20 20 20 22 24 27
7 5 5 6 7 9 10 12 13 14 8 20 25 27 25 24 32 30 27 25 24 26 24 21 21 23 27
4 5 6 7 8 10 11 12 14 17 18 19 26 26 25 33 36 34 30 29 27 26 22 17 18 22 24
6 7 8 9 11 13 12 14 16 18 18 19 25 25 27 33 38 37 36 32 27 24 20 24 22 21 19
7 9 10 11 12 13 13 14 16 17 19 18 21 22 24 29 36 38 37 36 22 28 27 26 26 24 26
10 11 12 13 13 13 14 15 18 19 18 17 19 21 24 27 30 36 33 33 32 31 33 30 27 26 26
13 13 14 15 15 15 15 16 19 20 21 20 21 21 23 25 31 33 33 33 34 37 37 35 33 31 28
14 15 16 17 18 17 17 18 19 19 22 22 25 26 26 29 26 32 33 36 37 35 31 34 36 29 27
15 15 16 18 19 19 19 20 20 21 22 22 25 26 28 32 31 24 31 34 33 34 31 32 37 35 30

GFSFLT2_850_spd_069.txt.gz
Wind_Speed
23 22 22 19 23 18 18 18 18 22 21 21 22 24 22 23 23 20 18 17 17 16 16 16 16 17 18
20 17 13 15 15 14 16 16 18 18 19 19 18 17 17 17 15 16 16 16 16 16 16 17 17 18 19
10 11 11 11 13 12 14 15 16 15 15 15 16 15 14 13 12 13 15 16 17 17 18 18 18 19 20
8 8 9 10 10 11 12 12 12 11 14 14 14 11 9 10 13 15 16 17 18 17 17 18 19 19 20
7 8 8 8 8 9 9 11 13 13 12 7 8 9 9 12 13 12 13 13 15 16 17 19 20 21 22
8 7 7 8 9 10 12 14 14 7 8 5 8 6 9 9 9 11 13 14 15 16 17 19 21 22 22
9 10 10 11 12 13 14 14 10 6 11 7 5 5 8 9 11 12 9 7 11 14 16 17 19 20 21
10 10 11 12 13 12 10 9 10 8 9 13 8 8 10 11 8 2 7 12 13 17 19 20 20 20 22
9 8 7 8 10 10 9 11 12 8 8 9 14 16 16 10 3 13 13 15 17 16 18 21 22 21 25
7 6 5 5 6 8 9 10 11 7 3 13 16 18 14 10 20 20 19 16 20 19 19 19 20 21 21
4 4 5 6 8 9 10 12 12 13 11 14 19 21 20 26 27 25 21 22 20 18 14 10 16 19 21
5 6 7 9 10 11 13 13 14 16 15 16 20 22 22 27 31 28 26 24 22 14 17 16 17 17 17
7 8 9 9 10 12 12 13 15 15 14 15 17 18 19 25 31 31 30 29 17 23 20 20 20 18 19
9 10 11 11 11 12 13 14 16 15 11 13 16 15 21 24 27 30 27 25 26 24 26 24 22 21 22
11 11 11 12 13 13 14 15 16 17 16 12 14 15 20 22 27 26 25 25 25 28 29 28 24 23 24
11 12 13 13 14 14 15 16 18 18 18 15 17 19 23 25 20 23 26 28 28 29 29 31 32 27 25
13 13 14 14 15 16 16 17 19 19 18 18 17 17 23 30 29 21 25 31 28 28 27 30 33 30 26

GFSFLT2_850_spd_072.txt.gz
Wind_Speed
21 20 23 24 27 33 27 27 23 23 22 18 18 20 21 22 22 23 20 17 15 14 14 14 15 15 15
13 13 14 15 18 19 21 20 19 17 16 17 16 19 20 21 20 18 16 15 14 14 14 15 15 16 17
7 9 12 14 14 15 14 15 16 15 15 16 18 19 20 17 17 14 14 15 15 15 16 16 16 17 17
7 9 11 11 11 12 13 12 13 12 13 15 18 18 17 15 14 15 15 15 15 16 16 16 17 17 17
7 6 8 9 8 9 10 11 11 13 15 17 15 12 12 14 14 13 14 14 14 16 16 16 17 19 19
4 6 7 8 9 10 11 12 13 10 12 9 12 10 12 12 13 13 14 15 16 16 16 17 18 18 19
6 8 9 10 10 11 12 13 13 8 11 8 9 9 11 11 13 15 15 13 12 16 19 19 20 21 21
9 9 10 11 11 12 11 10 9 9 11 9 7 8 9 12 12 9 7 12 15 18 20 21 23 24 24
9 7 8 6 8 8 7 8 9 6 10 12 9 12 12 10 10 11 12 13 15 15 20 23 24 25 26
7 7 6 5 7 8 8 9 10 7 6 10 14 14 8 7 11 15 15 11 14 16 19 20 20 21 21
4 4 5 7 8 9 10 12 13 13 9 13 16 16 15 20 19 17 13 14 14 15 15 11 15 18 23
5 6 8 10 11 11 12 14 15 16 15 16 19 17 19 22 26 22 21 17 17 12 11 16 16 19 20
8 9 10 11 11 12 13 13 15 16 15 16 17 17 19 22 26 27 25 21 12 15 15 17 18 18 20
11 12 13 14 13 14 15 15 17 15 14 14 16 17 20 21 23 26 24 23 20 19 21 22 21 20 19
13 13 13 14 14 14 14 16 17 18 16 13 15 19 21 21 24 23 23 23 20 21 24 28 23 22 21
13 14 14 14 15 14 14 16 18 18 18 17 16 17 21 23 22 20 23 24 22 25 25 29 31 23 21
14 14 14 15 15 16 15 16 18 19 18 16 15 18 22 27 27 23 21 27 29 27 25 27 30 28 24

GFSFLT2_850_spd_075.txt.gz
Wind_Speed
21 22 21 18 18 18 18 21 25 24 26 23 20 20 21 22 21 21 20 19 16 15 14 14 13 14 14
18 18 15 12 12 17 20 22 21 19 19 19 20 21 20 16 18 19 19 17 16 15 15 13 13 13 14
12 11 9 7 10 13 15 15 15 15 15 15 14 14 18 19 19 17 14 16 15 13 13 13 14 14 15
8 8 7 7 7 8 10 11 12 12 11 12 14 17 20 20 19 17 16 14 13 14 14 14 15 15 15
7 7 7 7 9 9 9 10 10 11 14 16 19 19 16 15 13 14 14 14 14 14 14 15 16 16 16
6 6 7 7 7 9 10 10 11 13 15 13 16 13 14 13 13 14 14 14 15 16 18 17 16 16 17
7 8 10 11 11 12 12 13 14 14 14 11 10 10 11 12 13 14 15 16 17 17 18 19 20 21 23
8 8 10 11 12 13 14 13 12 11 11 11 7 8 10 13 15 15 15 13 12 17 20 21 23 25 25
9 8 8 8 8 9 8 8 8 8 9 11 11 10 12 14 15 14 12 11 16 19 21 22 25 26 25
8 7 6 6 7 8 9 10 10 8 8 9 12 12 8 10 11 14 15 18 18 18 20 21 23 23 21
5 4 5 6 8 10 10 12 13 14 13 15 15 16 15 18 16 14 19 16 17 16 18 19 15 18 23
6 7 8 9 12 13 13 15 16 16 15 16 20 19 19 23 26 21 18 17 16 14 12 12 17 17 21
10 11 12 13 14 16 15 15 16 16 16 17 18 19 21 24 27 28 26 23 16 6 17 16 18 18 22
13 14 14 15 14 15 16 16 17 15 14 15 17 20 23 25 26 29 25 26 24 19 19 20 22 22 22
16 15 14 14 14 14 14 15 16 16 14 12 14 17 21 25 29 28 27 27 24 23 22 26 26 24 24
17 16 16 15 16 15 15 16 18 16 16 14 15 16 17 22 24 27 24 24 26 22 25 29 29 23 24
18 17 17 17 16 17 16 17 18 18 17 16 15 16 21 26 28 22 22 22 28 32 27 27 29 26 25

GFSFLT2_850_spd_078.txt.gz
Wind_Speed
17 18 17 16 17 14 11 11 15 18 21 23 22 17 16 19 21 22 22 21 18 15 13 12 12 13 12
12 12 11 11 11 12 13 14 15 16 18 19 20 21 22 21 20 20 20 18 18 14 13 11 11 11 12
10 8 8 9 9 9 10 10 10 11 12 13 13 15 15 18 17 16 16 15 15 14 13 13 12 11 12
7 6 7 8 7 7 7 8 9 9 9 10 12 12 14 16 17 17 16 14 12 12 13 14 13 12 12
7 7 7 7 7 7 7 7 8 8 9 13 15 16 18 17 16 15 12 11 11 12 13 12 12 13 13
7 7 7 7 8 8 9 10 10 11 13 14 16 15 13 12 11 10 10 10 11 12 13 14 16 14 12
8 8 8 9 10 10 11 12 12 13 13 11 9 8 9 9 9 9 10 11 13 14 16 16 15 17 18
7 7 7 9 10 11 11 11 11 10 10 9 5 6 9 10 10 11 13 15 15 13 13 17 19 21 22
7 6 6 7 7 6 6 6 6 6 9 11 10 9 10 12 13 15 14 13 12 12 17 20 21 22 23
6 5 5 5 5 6 7 7 8 8 6 8 11 11 6 8 9 11 12 14 16 18 20 20 22 23 23
5 5 5 6 7 8 9 11 11 12 12 13 14 14 14 16 16 13 14 15 19 21 22 21 20 22 21
6 7 8 9 11 12 12 12 13 14 13 15 18 17 19 22 24 18 16 15 16 16 19 17 15 18 21
10 10 11 12 14 16 16 15 15 15 15 15 17 18 19 23 26 26 25 20 15 5 12 17 20 20 22
13 14 15 15 14 15 16 15 17 14 11 14 15 17 20 22 24 27 25 25 21 21 20 18 18 19 22
16 17 16 15 15 15 16 16 17 16 12 10 14 18 20 21 24 24 23 24 23 23 20 25 22 22 23
18 19 18 17 17 16 15 16 18 17 16 13 15 18 21 23 21 21 21 23 21 19 20 26 29 24 22
20 20 19 19 19 18 16 17 19 18 17 16 17 17 21 26 28 23 20 20 24 25 24 26 28 25 24

GFSFLT2_850_spd_081.txt.gz
Wind_Speed
13 15 15 14 12 9 7 7 7 9 15 20 22 24 26 27 22 19 21 23 22 21 16 11 11 12 13
11 10 11 8 6 5 6 6 8 12 17 17 18 17 17 16 16 18 20 18 17 17 16 16 13 12 14
8 8 6 5 4 5 8 8 7 8 9 10 11 12 14 15 17 17 17 17 17 16 16 16 16 15 14
6 5 5 4 4 5 7 7 7 7 8 8 9 11 11 13 14 14 15 15 15 13 14 13 12 11 11
6 6 6 6 6 6 6 6 7 7 8 10 10 11 13 14 15 14 14 13 11 11 11 11 11 10 10
6 6 7 7 7 8 8 8 8 9 10 12 12 12 12 11 10 9 8 8 9 10 11 11 12 12 11
6 6 7 7 8 8 8 9 8 10 10 8 7 7 7 6 6 7 8 9 11 12 13 12 13 11 12
5 6 6 7 7 7 7 7 7 6 6 4 4 5 6 7 7 8 10 12 13 12 12 11 12 15 17
5 5 5 6 5 4 5 6 5 7 7 6 6 7 7 8 10 12 13 12 12 12 12 12 16 19 20
3 3 4 4 5 5 6 7 7 6 5 8 10 9 4 6 8 9 9 10 12 15 18 18 20 20 21
4 4 5 5 6 7 8 9 9 9 11 11 10 12 11 12 14 13 16 16 16 17 20 23 21 20 21
5 6 7 8 9 10 11 12 12 12 10 13 16 13 14 16 18 14 15 16 18 18 20 21 21 20 19
8 9 10 11 13 14 13 13 13 12 13 13 14 15 16 18 21 21 20 18 15 17 15 10 15 19 21
10 11 12 14 14 14 14 14 14 12 10 13 15 16 17 18 20 22 20 18 15 18 21 22 21 21 22
13 13 14 15 15 15 14 15 15 14 13 11 15 19 20 21 23 20 20 20 16 19 19 19 19 20 21
15 15 16 16 17 16 14 15 16 16 16 14 15 17 20 22 21 18 19 20 17 16 19 23 24 20 22
16 16 16 17 17 17 16 16 17 18 18 17 17 17 19 23 26 22 18 18 22 23 22 24 27 24 24

GFSFLT2_850_spd_084.txt.gz
Wind_Speed
12 12 15 15 14 12 9 8 9 8 9 10 13 16 18 21 23 24 23 24 22 23 23 21 16 11 11
13 10 12 12 9 7 6 6 9 11 12 14 16 20 21 22 21 19 18 16 15 15 16 17 16 17 15
10 11 11 7 6 6 5 7 8 10 10 12 13 14 14 15 15 14 12 13 13 14 15 17 18 17 17
8 8 7 6 6 5 6 7 8 8 9 10 11 10 11 11 12 12 12 12 13 13 14 15 14 15 15
7 7 7 6 6 7 7 7 9 9 10 11 11 11 13 13 14 15 15 15 16 15 13 11 11 10 9
6 6 8 7 7 7 8 7 4 9 10 11 12 12 13 12 12 12 12 12 11 11 11 12 12 11 11
4 6 6 6 6 6 7 7 7 10 8 6 7 7 7 7 7 6 7 9 10 11 12 13 12 13 14
3 4 4 4 4 4 4 4 5 5 4 3 5 5 6 6 6 8 9 11 12 12 12 14 14 14 14
2 3 3 3 2 2 3 3 3 5 5 3 4 5 7 8 9 11 12 11 12 14 15 16 16 15 16
3 3 3 3 3 3 4 4 5 5 5 6 7 6 4 7 9 10 11 11 12 13 16 17 18 20 20
3 4 4 5 6 7 8 8 8 8 12 11 9 10 7 10 11 13 16 17 18 19 19 20 21 23 24
5 6 7 8 9 10 11 12 12 12 13 14 14 11 12 14 13 11 12 15 16 18 21 21 21 23 24
8 9 10 11 12 14 13 13 14 12 12 12 14 14 14 15 17 18 16 15 15 14 12 18 19 18 19
10 11 12 13 13 13 13 14 14 13 11 12 13 15 16 17 18 19 17 16 16 17 18 20 22 26 26
13 13 14 15 15 14 14 14 15 14 12 12 13 15 17 18 21 19 19 20 17 18 19 20 19 20 20
14 15 15 16 16 15 15 15 15 15 15 14 14 14 16 19 19 18 18 20 19 15 19 23 23 20 21
16 16 16 17 17 16 16 15 16 16 16 17 17 16 16 16 18 23 19 17 18 21 20 22 25 25 23

GFSFLT2_850_spd_087.txt.gz
Wind_Speed
15 13 13 15 12 11 9 9 10 10 8 8 7 10 12 15 16 17 17 18 19 20 18 16 14 13 15
12 13 13 13 11 9 6 7 9 8 11 11 12 13 14 16 17 16 17 17 16 15 14 14 14 14 13
11 11 11 11 8 9 7 8 9 10 11 12 12 11 12 13 14 15 15 14 14 12 12 14 15 15 16
8 8 8 7 6 6 6 8 8 8 10 10 11 11 12 13 14 15 14 12 12 13 12 14 14 15 15
7 7 7 6 6 7 7 8 10 9 10 11 10 11 13 13 15 15 15 15 15 15 15 13 11 10 10
7 6 8 7 7 7 8 7 4 9 8 9 11 10 11 11 10 12 13 12 11 10 10 10 9 9 8
7 7 7 7 6 6 6 5 6 9 7 5 6 6 6 6 6 6 7 7 8 8 9 9 10 10 10
6 5 5 5 5 4 4 3 4 4 4 2 6 5 6 7 6 7 7 7 8 9 10 12 13 13 13
3 2 2 3 2 2 3 3 2 6 6 5 6 7 8 8 9 9 9 10 10 11 12 14 14 15 15
2 2 2 2 3 4 4 4 5 5 7 7 8 8 5 8 8 9 9 9 9 11 12 13 15 16 17
3 4 4 5 6 6 8 8 9 9 13 11 11 11 9 12 11 11 13 14 15 16 17 18 18 19 20
5 6 7 8 9 10 11 12 12 12 13 14 15 13 14 15 15 13 12 12 14 15 16 17 19 21 22
8 9 9 11 12 13 13 14 13 12 12 13 14 14 15 16 18 18 17 14 15 14 11 14 15 16 20
10 11 12 13 14 14 14 14 14 13 11 12 13 14 16 17 18 19 17 16 16 16 17 18 19 18 20
13 13 14 15 16 15 14 15 15 14 14 13 13 14 16 17 20 20 19 19 18 18 20 21 19 18 20
14 14 15 16 17 17 16 16 16 16 16 15 15 16 17 18 18 18 17 18 18 19 18 21 23 20 20
15 16 16 17 17 17 17 17 17 17 17 16 17 17 19 21 18 20 20 16 18 21 21 22 25 23 22

GFSFLT2_850_spd_090.txt.gz
Wind_Speed
18 17 12 10 9 8 7 6 5 7 4 3 3 3 7 11 13 14 15 16 16 16 16 15 14 14 12
17 12 9 9 9 7 5 5 4 5 5 8 7 7 9 11 12 14 15 16 14 13 14 14 13 13 11
11 9 8 8 7 6 6 6 5 7 8 7 8 9 10 11 10 11 12 12 13 13 13 13 12 12 13
9 7 7 7 6 5 6 5 6 7 8 8 8 8 9 11 12 13 13 14 14 15 14 14 14 14 14
9 8 8 7 6 7 7 8 6 7 7 8 7 8 10 11 12 11 12 13 13 13 13 13 13 13 12
8 8 8 7 7 7 7 7 7 5 3 7 6 7 7 7 8 8 9 10 10 10 9 8 9 11 13
8 9 8 6 7 7 6 4 5 5 5 4 3 4 4 4 5 5 5 5 5 6 6 7 7 7 8
6 6 6 6 5 4 4 3 3 3 3 4 3 4 5 6 5 6 6 5 6 7 8 8 10 11 10
4 4 3 3 3 3 3 3 4 4 4 5 4 4 6 8 8 7 7 8 9 10 10 11 12 13 13
4 4 3 3 4 3 3 3 4 6 3 5 6 8 5 6 6 6 7 8 8 10 11 11 12 13 14
5 4 4 4 4 5 6 6 7 9 11 10 10 10 8 12 10 10 11 12 14 14 14 15 16 17 18
6 5 5 5 5 7 9 10 10 10 13 13 13 12 13 14 13 11 11 11 13 13 14 15 16 16 18
8 7 7 8 9 10 12 13 13 12 12 14 14 13 14 15 17 16 15 12 13 13 10 12 15 15 16
10 10 9 10 11 13 14 14 14 12 12 13 13 14 15 16 18 19 17 14 14 15 15 16 16 17 17
12 12 12 12 12 14 14 14 15 14 13 13 13 14 15 17 19 18 17 17 15 16 17 18 16 16 15
14 13 13 14 14 15 15 15 15 15 16 14 13 15 16 18 16 16 15 15 15 17 15 19 20 16 17
15 15 15 15 15 16 15 16 17 15 16 15 14 14 17 19 19 16 18 14 14 17 19 21 24 21 21

GFSFLT2_850_spd_093.txt.gz
Wind_Speed
18 15 14 13 10 9 7 5 4 4 3 3 3 9 9 10 12 12 12 12 14 14 14 14 14 12 12
18 15 14 10 9 6 4 5 4 5 4 5 7 7 7 10 13 15 15 14 13 13 12 12 13 11 9
14 12 10 9 6 6 6 6 5 5 5 6 6 7 8 9 9 10 11 10 10 12 13 12 13 12 11
10 9 9 8 7 7 7 6 6 7 6 7 7 7 8 9 9 10 10 12 13 13 13 13 13 13 13
9 9 8 9 8 8 8 8 8 8 8 7 7 7 7 8 9 10 10 12 12 12 13 13 13 13 13
10 10 9 10 8 9 9 9 8 7 5 6 6 5 5 5 5 5 7 8 8 8 8 8 8 8 9
9 9 9 8 7 7 7 8 7 7 6 4 3 3 2 2 2 2 2 2 3 4 4 4 5 6 7
9 9 8 7 6 6 6 6 5 5 4 3 3 3 4 3 3 4 3 4 5 5 5 6 7 8 9
9 8 6 5 5 5 5 4 4 5 5 4 3 3 5 7 7 6 5 6 8 8 9 9 10 12 12
7 7 6 5 5 5 4 4 4 4 3 3 3 4 4 6 6 4 5 7 8 9 10 11 12 13 13
8 7 6 5 4 4 5 5 6 7 8 8 6 7 8 8 8 9 10 11 11 12 13 14 15 16 17
9 8 7 6 6 6 6 6 8 10 11 10 10 10 10 11 9 9 8 10 12 13 14 14 14 15 17
10 9 8 8 7 7 7 8 10 10 12 12 11 11 12 13 14 10 11 9 12 13 11 11 12 14 15
11 11 10 9 8 8 8 10 10 11 12 13 12 12 13 14 16 14 12 11 9 12 15 14 15 16 16
14 13 11 11 10 10 9 10 10 9 9 11 12 13 14 15 17 14 14 13 12 13 15 14 14 15 15
15 15 14 14 13 13 12 11 10 9 10 10 11 13 14 15 14 12 12 12 12 15 15 15 14 14 14
17 16 16 16 16 15 14 14 13 11 10 12 12 12 14 17 15 13 13 12 13 14 15 18 21 19 20

GFSFLT2_850_spd_096.txt.gz
Wind_Speed
21 20 19 15 13 13 10 9 7 6 5 5 6 9 10 9 11 12 12 10 13 15 13 16 15 15 13
23 19 17 16 14 11 10 9 6 6 5 4 6 8 9 13 15 16 16 14 14 15 15 15 13 13 14
19 18 17 15 13 12 10 9 7 7 6 7 6 6 9 10 10 12 14 15 15 14 12 12 14 13 12
15 15 15 14 13 11 10 9 7 7 7 7 7 8 8 9 10 10 11 12 13 13 12 14 15 14 13
13 13 13 14 13 11 10 9 8 7 8 8 7 7 8 9 9 10 11 12 13 14 14 14 14 13 13
13 12 13 14 13 11 12 10 8 9 8 7 6 6 6 6 7 8 9 9 10 10 10 10 10 10 10
12 11 11 10 11 11 11 9 9 8 7 7 6 5 5 3 4 5 5 5 6 6 6 6 6 5 6
13 11 10 10 10 10 10 9 9 8 7 6 7 6 6 5 5 5 6 6 6 5 5 6 6 7 8
11 10 10 9 9 8 8 8 9 8 7 6 8 7 7 7 8 8 8 8 8 8 8 9 9 11 12
9 8 8 8 8 8 8 7 7 6 7 7 7 7 6 9 9 9 9 10 10 10 11 11 13 14 14
9 8 8 8 8 8 7 7 7 7 5 7 7 8 9 7 8 10 11 12 11 12 13 14 15 15 17
10 10 9 8 8 8 8 8 8 8 8 9 11 11 12 11 12 12 11 11 12 13 13 14 15 15 16
11 10 9 11 11 10 9 9 9 10 10 10 11 13 14 14 13 11 11 11 13 13 15 15 14 14 15
12 13 13 13 12 12 11 10 9 9 9 10 10 12 14 14 15 12 12 10 8 11 15 15 16 17 17
15 15 14 14 14 13 13 12 10 9 9 9 10 11 13 14 16 13 13 13 13 16 17 15 15 17 17
17 17 17 16 15 16 16 15 13 11 10 10 11 12 14 13 14 11 11 11 12 15 16 16 15 15 16
20 19 19 18 19 19 18 18 17 14 13 13 13 12 14 17 13 13 14 11 11 13 14 16 19 18 18

GFSFLT2_850_spd_099.txt.gz
Wind_Speed
21 19 17 19 17 16 16 11 9 8 7 7 7 9 10 9 9 13 11 10 9 10 12 12 12 13 14
21 17 18 19 17 17 14 12 10 10 9 8 8 11 17 15 12 12 10 9 11 12 12 13 14 15 15
24 23 22 19 17 17 14 12 11 10 8 9 8 6 8 12 15 16 18 18 18 17 16 14 14 13 10
20 19 19 18 17 15 14 13 11 11 10 9 9 8 9 10 12 13 14 15 16 16 15 14 14 13 13
18 18 18 18 17 16 14 13 13 11 10 9 8 9 8 9 11 12 13 14 14 14 15 15 14 14 15
16 15 14 14 15 16 15 15 12 11 11 8 7 8 7 7 8 9 11 11 12 13 13 13 13 14 14
14 13 12 12 14 14 14 13 12 9 7 7 7 7 6 6 6 7 7 7 7 8 8 8 7 7 8
13 13 12 12 13 12 12 12 11 11 9 8 7 7 7 7 7 7 7 7 6 6 6 7 7 8 8
13 13 13 12 12 12 12 12 11 10 9 8 8 8 8 9 10 9 9 8 9 9 8 9 10 10 10
10 10 11 11 11 11 11 10 10 8 9 9 7 7 5 11 12 12 11 11 10 10 10 11 13 13 13
9 9 10 10 10 10 10 10 9 9 5 8 7 9 10 9 7 10 10 10 12 12 13 14 14 15 16
10 10 10 10 10 11 11 10 10 9 8 9 11 10 12 13 12 13 14 14 15 15 15 15 16 16 17
10 9 9 12 12 11 11 10 10 10 10 10 11 12 13 13 14 13 13 14 15 15 17 16 16 17 17
11 13 15 14 13 13 13 13 12 11 11 11 12 12 13 14 14 13 15 12 10 12 15 15 14 16 17
15 16 15 16 16 15 16 15 14 12 12 12 12 13 14 15 16 12 14 15 15 17 19 18 16 18 17
17 17 18 18 18 18 19 19 17 15 14 14 14 14 15 13 14 12 14 13 14 15 16 18 16 16 18
20 20 20 20 21 22 22 22 21 18 16 16 17 17 17 18 14 14 13 14 14 14 14 17 20 17 18

GFSFLT2_850_spd_102.txt.gz
Wind_Speed
20 22 21 22 20 16 16 17 19 13 8 8 7 7 8 6 9 12 15 22 23 20 22 20 17 15 14
18 17 17 17 19 16 15 16 16 12 9 8 8 11 13 12 10 9 8 9 9 11 11 11 12 11 12
21 20 17 20 20 18 15 17 15 12 10 10 7 7 10 17 16 15 14 12 11 10 11 12 13 13 16
20 20 20 20 19 18 17 15 14 11 11 10 9 9 8 10 14 15 17 19 18 16 17 16 16 15 13
19 19 17 19 19 17 17 15 14 13 12 11 10 10 10 11 13 15 15 15 15 16 16 16 15 14 15
17 17 16 16 17 17 17 16 14 13 13 12 11 11 10 10 12 13 14 15 15 15 15 16 16 16 16
14 13 13 12 12 14 15 14 14 12 8 11 10 10 9 9 8 8 9 10 10 10 11 11 11 11 10
13 12 13 11 12 12 12 13 13 13 11 10 9 9 9 8 7 6 7 7 7 7 7 7 7 7 7
12 13 13 12 12 13 13 13 13 11 10 10 9 10 9 9 10 8 8 7 8 8 8 8 9 8 9
9 10 11 12 12 12 13 11 11 8 10 10 8 9 7 12 11 10 10 10 9 9 9 10 11 11 12
7 8 10 10 11 11 11 11 11 10 6 10 7 9 10 6 5 8 10 11 11 11 12 13 13 13 13
9 9 8 10 10 10 10 10 10 10 10 9 10 9 11 11 11 10 10 12 13 14 15 16 16 15 15
9 8 9 10 11 11 11 11 11 10 11 11 12 12 12 14 13 12 12 14 15 15 15 16 16 16 16
10 11 14 14 12 12 12 13 12 12 12 12 13 13 13 14 14 13 14 12 10 13 17 18 17 16 15
11 14 14 14 14 14 15 15 15 13 14 14 13 13 13 13 13 11 13 15 16 18 19 19 17 17 18
15 16 15 16 17 17 18 18 17 16 16 16 16 16 16 14 13 10 12 13 15 18 19 20 16 17 17
16 16 17 18 20 21 21 21 21 19 17 19 19 19 19 18 15 14 12 12 14 16 17 19 18 14 18

GFSFLT2_850_spd_105.txt.gz
Wind_Speed
17 19 17 17 18 19 17 17 14 17 18 10 9 7 7 5 8 17 20 26 27 27 25 25 21 20 14
20 16 15 18 19 17 16 16 15 15 14 9 8 10 13 10 9 8 16 19 21 23 26 26 23 19 14
18 18 17 18 19 18 16 16 15 15 13 10 10 9 10 16 13 10 8 8 7 7 10 11 11 12 13
20 19 18 19 20 19 17 16 16 15 11 9 10 8 6 8 16 18 15 14 11 11 11 11 10 11 11
18 18 18 18 18 18 18 16 15 14 11 10 10 9 9 10 11 15 18 19 17 17 16 15 16 16 15
16 18 17 16 16 16 15 15 15 13 13 12 11 10 10 11 12 14 15 15 16 16 16 16 16 17 16
12 13 14 13 13 14 16 15 15 11 7 11 12 11 10 10 10 11 12 14 15 16 16 16 17 17 16
11 12 13 13 12 11 10 13 14 13 11 10 9 11 10 10 8 8 8 9 10 10 11 12 12 11 11
11 12 13 13 12 12 14 14 13 12 12 11 9 10 11 10 9 8 8 9 9 9 10 10 10 9 9
10 11 12 12 12 11 13 12 12 10 11 11 9 9 8 11 11 10 9 9 9 10 11 11 10 10 10
8 7 8 9 10 11 12 12 12 11 6 11 8 9 9 3 7 10 11 12 12 12 12 12 12 12 12
8 7 7 8 9 10 9 10 11 11 10 8 9 9 10 10 9 9 11 11 12 12 13 14 15 14 14
9 9 9 9 9 8 9 11 10 10 11 11 11 11 11 12 12 11 11 12 14 16 16 17 17 17 16
10 11 10 12 11 11 11 10 11 11 11 12 12 12 13 13 14 13 13 12 9 13 16 17 17 17 17
10 11 12 12 11 12 13 13 14 12 13 13 14 14 14 14 13 13 13 14 14 17 17 17 17 17 17
12 13 14 13 15 18 17 16 16 15 15 16 16 16 16 15 14 13 14 13 14 17 17 18 17 18 19
14 14 15 16 18 19 19 19 20 19 18 19 19 19 19 19 15 13 13 13 15 16 16 17 15 15 17

GFSFLT2_850_spd_108.txt.gz
Wind_Speed
21 18 16 19 19 19 20 19 18 15 16 18 18 9 7 5 0 4 5 10 11 16 23 23 27 24 20
20 17 18 19 17 19 18 19 15 13 15 16 17 11 10 9 8 7 17 18 28 30 30 28 21 22 19
20 18 16 17 18 18 16 16 15 13 13 16 17 10 10 13 12 7 5 11 19 25 26 26 23 22 17
19 19 18 17 18 18 17 16 16 14 15 15 16 7 6 8 16 13 10 8 8 8 7 8 9 9 9
19 19 18 18 17 17 17 17 16 15 14 14 12 9 8 6 9 16 15 13 11 9 8 8 9 10 11
14 16 16 15 15 15 15 17 16 14 14 15 12 11 10 9 10 12 15 17 16 14 14 14 15 15 16
10 11 13 13 13 14 15 15 15 13 9 15 13 13 11 10 10 11 13 15 16 17 16 15 15 15 15
11 11 12 12 12 13 12 14 15 15 14 12 11 11 10 10 9 8 9 11 12 13 13 15 16 16 16
11 12 12 12 13 13 13 14 16 16 15 13 11 11 10 10 9 8 7 8 8 9 10 11 10 10 11
10 10 12 12 13 13 13 13 15 11 13 14 11 10 8 11 10 10 10 8 9 10 10 10 10 11 11
9 8 9 10 12 13 13 13 13 14 7 13 11 11 9 4 11 12 11 11 11 11 11 12 12 13 13
9 9 8 9 10 11 12 12 13 13 12 8 12 12 12 9 7 8 10 11 12 12 13 14 14 14 15
10 10 9 9 9 9 10 11 12 12 13 12 12 10 11 12 9 9 10 10 12 13 14 15 16 17 17
10 11 11 11 11 11 11 11 11 11 12 13 12 13 14 14 14 13 12 10 9 12 15 17 18 18 19
11 12 12 12 12 12 12 13 14 13 13 13 14 14 15 15 15 14 14 15 14 15 15 15 16 16 18
12 12 13 13 14 16 17 16 15 15 15 15 15 16 16 15 15 15 16 15 15 16 16 17 16 17 18
14 14 14 15 17 17 17 17 18 19 18 18 18 19 18 18 17 14 15 17 18 18 17 17 15 15 16

GFSFLT2_850_spd_111.txt.gz
Wind_Speed
23 23 19 20 18 19 20 19 19 19 20 16 18 22 17 11 8 10 7 7 9 14 18 18 28 32 22
21 21 19 18 19 21 20 20 18 17 15 15 19 24 14 11 9 4 8 3 8 13 16 21 23 18 17
21 21 18 19 18 19 19 18 16 15 14 15 19 19 9 11 11 5 7 19 26 20 27 26 23 21 21
17 20 18 17 18 19 19 17 16 15 14 15 17 15 7 7 13 10 6 3 9 15 20 22 20 19 19
17 18 17 18 18 18 17 17 16 15 15 16 15 12 8 6 8 12 10 7 5 5 5 6 7 8 8
16 15 14 17 16 15 15 15 16 15 15 15 13 13 9 8 8 10 11 12 9 8 7 7 8 9 11
13 11 13 13 14 14 14 14 15 13 10 12 13 13 11 9 9 10 12 13 15 15 14 12 12 13 12
12 12 13 12 13 13 12 12 13 13 13 13 11 12 10 10 9 8 10 12 14 15 15 15 14 14 15
12 12 13 13 13 13 13 14 14 13 14 14 13 12 10 9 9 7 6 8 8 10 12 12 13 14 14
11 11 12 12 13 14 14 12 13 11 11 15 13 8 6 11 9 8 8 7 7 8 10 9 10 10 11
11 10 10 10 12 14 14 13 13 14 7 7 10 11 9 2 10 11 8 8 8 9 9 9 10 11 11
11 10 9 9 9 11 12 13 12 13 12 9 11 8 11 10 6 11 10 10 11 10 11 12 13 14 14
10 10 10 9 9 10 11 12 11 12 12 12 10 10 10 12 10 8 8 10 11 12 12 13 13 15 16
10 11 10 10 10 10 10 10 10 10 11 12 11 12 13 13 13 12 10 8 8 12 13 14 15 16 17
11 11 11 11 11 11 12 11 11 10 11 10 11 13 14 15 15 14 14 14 13 14 13 13 13 14 15
11 11 11 11 12 12 13 13 13 12 12 12 13 15 16 16 16 15 16 15 15 15 16 16 14 13 15
12 12 12 13 14 14 14 15 15 15 16 16 16 17 17 17 17 15 15 16 18 18 18 18 15 14 15

GFSFLT2_850_spd_114.txt.gz
Wind_Speed
22 23 21 21 19 17 15 17 17 19 18 16 17 16 21 27 14 10 15 14 8 10 15 19 24 25 34
20 22 20 21 21 15 17 18 16 17 16 15 15 16 24 20 9 6 11 6 5 8 10 16 23 20 37
17 19 21 18 17 18 17 18 16 15 14 15 16 17 22 15 8 6 5 11 4 6 11 15 29 23 8
15 18 20 19 17 17 16 17 15 14 14 15 16 16 18 12 7 7 4 5 14 19 18 23 23 24 25
17 18 18 17 15 14 16 16 14 13 14 16 16 15 14 10 8 7 8 5 3 9 14 15 20 23 26
14 13 14 13 11 12 14 13 13 13 14 16 15 13 13 10 8 7 6 10 8 6 4 3 5 8 11
12 11 10 11 10 11 11 12 13 14 15 13 11 13 13 11 10 9 8 8 12 11 11 12 11 10 10
12 11 10 11 11 11 10 11 14 13 13 13 12 13 11 10 10 10 10 9 10 12 14 15 16 15 14
10 12 10 11 12 12 11 13 15 14 14 13 14 14 12 9 9 8 9 9 9 12 11 12 13 14 15
11 13 10 11 12 13 12 14 14 13 14 16 14 12 6 10 10 9 8 7 9 8 9 10 11 12 13
11 12 11 10 10 12 14 15 14 15 8 6 9 10 11 5 8 10 10 9 7 8 8 9 9 9 10
11 12 12 10 9 10 13 13 13 14 13 11 10 8 10 10 6 7 10 10 9 8 9 10 11 11 10
12 12 11 10 10 10 11 11 12 13 13 12 11 10 9 11 8 6 7 9 11 10 10 9 10 11 12
12 12 10 11 11 10 10 10 11 11 11 10 12 11 12 10 9 9 10 7 6 10 11 12 12 13 13
12 10 10 11 11 10 10 10 10 9 9 9 9 11 12 13 13 12 12 12 12 13 11 11 12 13 14
12 11 11 9 9 9 10 11 11 10 9 10 10 12 13 13 14 14 15 14 13 14 15 16 14 13 13
12 11 11 10 11 9 10 11 11 11 12 13 13 14 14 15 15 15 13 13 16 16 15 16 15 13 16

GFSFLT2_850_spd_117.txt.gz
Wind_Speed
19 20 21 23 22 21 19 16 15 16 17 18 16 18 18 22 28 19 13 20 17 13 10 11 13 19 26
20 22 22 21 23 21 17 14 16 15 16 16 15 16 19 22 22 11 9 16 17 11 7 9 12 18 23
20 22 22 20 20 18 16 16 15 15 14 16 15 16 19 21 16 8 6 11 5 11 6 8 14 13 15
21 21 21 20 18 18 16 15 16 14 15 14 15 16 17 19 15 7 3 5 12 13 6 12 18 20 14
20 19 19 17 15 15 13 13 14 13 13 14 15 15 16 15 12 7 6 4 4 14 13 18 10 11 14
18 16 14 12 10 12 11 11 12 10 11 13 14 14 14 13 11 7 6 7 4 5 13 15 13 18 25
15 12 10 8 8 9 9 10 12 11 12 14 13 11 13 12 10 9 7 7 10 9 9 10 10 7 13
13 14 11 9 10 9 9 10 11 12 12 13 12 12 13 12 10 9 8 8 10 12 12 11 11 12 12
11 13 11 10 10 11 10 10 11 12 12 13 11 12 12 12 10 9 7 7 9 14 14 14 15 15 17
12 12 12 10 12 12 11 11 12 10 11 13 13 10 5 6 10 8 7 6 6 10 13 15 15 15 16
10 11 11 11 11 11 11 12 13 13 15 7 4 5 8 10 7 8 7 8 7 7 7 9 10 12 15
11 10 10 9 9 10 10 11 13 13 13 10 10 8 8 9 7 4 6 7 7 9 9 10 10 10 10
9 10 10 9 8 9 10 9 10 10 10 9 10 10 8 8 7 4 3 4 8 11 11 10 10 10 11
9 9 8 8 8 9 9 8 8 8 8 9 10 10 10 9 8 7 7 4 3 8 11 12 12 14 15
8 7 7 7 8 9 8 8 7 6 6 7 8 10 11 12 11 9 9 10 10 12 11 11 13 13 14
9 7 7 8 8 8 8 8 8 7 8 9 9 10 11 9 11 10 12 12 12 14 15 15 13 13 13
9 9 8 9 9 8 8 8 7 8 9 10 12 11 13 13 12 12 11 9 11 13 14 15 13 13 17